MTG-S1

Last updated on Tue Sep 22 2026 00:02:54 GMT+0000 (Coordinated Universal Time)

1 64723U 25143A 26264.27517639 -.00000010 00000+0 00000+0 0 9997 2 64723 0.6190 341.8101 0003634 252.8163 224.3397 1.00272803 4389
UTC large
Height (km)
Speed (km/s)
/
Latitude / Longitude
Inclination (degrees)
Orbital Period (minutes)
Azimuth
Elevation
Range (km)
Doppler Factor

Next 0 passes for location: London (51.5072 / 0.1276)

No passes found over London.
MTG-S1